Weather History for Perry, IA

Change the Weather History Date:

Monday, September 9, 2013

  Actual Average Record
Temperature  
Mean Temperature 81 °F -  
Max Temperature 97 °F 78 °F 100 °F (1955)
Min Temperature 65 °F 53 °F 37 °F (1986)
Cooling Degree Days 16    
Growing Degree Days 31 (Base 50)    
Moisture  
Dew Point 61 °F    
Average Humidity 58    
Maximum Humidity 92    
Minimum Humidity 22    
Precipitation  
Precipitation 0.00 in - - ()
Sea Level Pressure  
Sea Level Pressure 29.82 in    
Wind  
Wind Speed 7 mph (SSW)    
Max Wind Speed 20 mph    
Max Gust Speed 29 mph    
Visibility 8 miles    
Events      
Averages and records for this station are not official NWS values.
T = Trace of Precipitation, MM = Missing Value Source: NWS Daily Summary

Daily Weather History Graph

Daily Weather History Graph

Search for Another Location

Airport:

Trip Planner

Search our weather history database for the weather conditions in past years. The results will help you decide how hot, cold, wet, or windy it might be!

Date:

Astronomy

Sep. 09, 2013 Rise Set
Actual Time 6:50 AM CDT 7:36 PM CDT
Civil Twilight 6:22 AM CDT 8:04 PM CDT
Nautical Twilight 5:49 AM CDT 8:37 PM CDT
Astronomical Twilight 5:14 AM CDT 9:11 PM CDT
Moon 11:17 AM CDT (9/9) 9:48 PM CDT (9/9)
Length of Visible Light 13h 41m
Length of Day
12h 45m
Waxing Crescent, 19% of the Moon is Illuminated
Sep 9
Waxing Crescent
Sep 12
First Quarter
Sep 19
Full
Sep 26
Last Quarter
Oct 4
New

Hourly Weather History & Observations

Time (CDT) Temp. Heat Index Dew Point Humidity Pressure Visibility Wind Dir Wind Speed Gust Speed Precip Events Conditions
12:15 AM 72.3 °F - 68.0 °F 86% 29.83 in 7.0 mi ESE 4.6 mph - N/A   Clear
12:35 AM 71.2 °F - 67.5 °F 88% 29.83 in 7.0 mi ESE 3.5 mph - N/A   Clear
12:55 AM 70.5 °F - 66.7 °F 88% 29.83 in 7.0 mi East 4.6 mph - N/A   Clear
1:15 AM 70.5 °F - 67.1 °F 89% 29.83 in 5.0 mi East 4.6 mph - N/A   Clear
1:35 AM 70.2 °F - 66.7 °F 89% 29.83 in 5.0 mi East 3.5 mph - N/A   Clear
1:55 AM 70.0 °F - 66.7 °F 89% 29.82 in 5.0 mi East 4.6 mph - N/A   Clear
2:15 AM 69.8 °F - 66.4 °F 89% 29.82 in 5.0 mi East 4.6 mph - N/A   Clear
2:35 AM 69.1 °F - 66.2 °F 91% 29.82 in 4.0 mi ESE 3.5 mph - N/A   Clear
2:55 AM 69.1 °F - 66.2 °F 91% 29.81 in 3.0 mi ESE 4.6 mph - N/A   Clear
3:15 AM 68.4 °F - 65.7 °F 91% 29.81 in 2.0 mi Calm Calm - N/A   Clear
3:35 AM 68.0 °F - 65.3 °F 91% 29.81 in 2.0 mi East 4.6 mph - N/A   Clear
3:55 AM 68.2 °F - 65.5 °F 91% 29.81 in 2.5 mi SE 3.5 mph - N/A   Clear
4:15 AM 68.0 °F - 65.3 °F 91% 29.81 in 2.5 mi SE 4.6 mph - N/A   Clear
4:35 AM 67.6 °F - 64.9 °F 91% 29.81 in 2.5 mi South 3.5 mph - N/A   Clear
4:55 AM 68.4 °F - 65.7 °F 91% 29.81 in 2.5 mi SSE 3.5 mph - N/A   Clear
5:15 AM 67.1 °F - 64.4 °F 91% 29.81 in 2.0 mi SSE 4.6 mph - N/A   Clear
5:35 AM 66.4 °F - 63.9 °F 92% 29.81 in 2.5 mi South 3.5 mph - N/A   Clear
5:55 AM 67.1 °F - 64.6 °F 92% 29.81 in 3.0 mi South 4.6 mph - N/A   Clear
6:15 AM 67.1 °F - 64.6 °F 92% 29.81 in 3.0 mi South 3.5 mph - N/A   Clear
6:35 AM 66.7 °F - 64.0 °F 91% 29.81 in 4.0 mi South 3.5 mph - N/A   Clear
6:55 AM 65.3 °F - 62.6 °F 91% 29.81 in 4.0 mi South 3.5 mph - N/A   Clear
7:15 AM 65.7 °F - 63.0 °F 91% 29.82 in 4.0 mi SSE 3.5 mph - N/A   Clear
7:35 AM 67.1 °F - 64.2 °F 90% 29.83 in 5.0 mi South 3.5 mph - N/A   Clear
7:55 AM 68.9 °F - 65.1 °F 88% 29.83 in 7.0 mi South 3.5 mph - N/A   Clear
8:15 AM 70.9 °F - 66.2 °F 85% 29.83 in 7.0 mi South 3.5 mph - N/A   Clear
8:35 AM 73.4 °F - 66.6 °F 79% 29.83 in 10.0 mi South 4.6 mph - N/A   Clear
8:55 AM 76.8 °F - 66.2 °F 70% 29.84 in 10.0 mi SSW 5.8 mph - N/A   Clear
9:15 AM 79.0 °F - 65.1 °F 62% 29.83 in 10.0 mi SSW 5.8 mph - N/A   Clear
9:35 AM 81.5 °F 83.1 °F 64.6 °F 56% 29.84 in 10.0 mi SW 4.6 mph - N/A   Clear
9:55 AM 83.8 °F 84.7 °F 63.0 °F 49% 29.84 in 10.0 mi SW 6.9 mph - N/A   Clear
10:15 AM 86.0 °F 86.3 °F 61.5 °F 44% 29.84 in 10.0 mi WSW 9.2 mph - N/A   Clear
10:35 AM 87.3 °F 86.7 °F 59.2 °F 39% 29.84 in 10.0 mi WSW 10.4 mph - N/A   Clear
10:55 AM 88.7 °F 88.6 °F 60.4 °F 39% 29.84 in 10.0 mi WSW 8.1 mph - N/A   Clear
11:15 AM 89.6 °F 88.4 °F 58.1 °F 34% 29.83 in 10.0 mi WSW 11.5 mph 17.3 mph N/A   Clear
11:35 AM 90.9 °F 89.7 °F 58.1 °F 33% 29.83 in 10.0 mi SW 11.5 mph 16.1 mph N/A   Clear
11:55 AM 91.9 °F 91.2 °F 58.8 °F 33% 29.83 in 10.0 mi WSW 10.4 mph - N/A   Clear
12:15 PM 93.2 °F 91.9 °F 57.2 °F 30% 29.82 in 10.0 mi WSW 10.4 mph 17.3 mph N/A   Clear
12:35 PM 93.9 °F 92.2 °F 55.9 °F 28% 29.82 in 10.0 mi SW 10.4 mph 18.4 mph N/A   Clear
12:55 PM 94.8 °F 92.8 °F 55.2 °F 26% 29.81 in 10.0 mi SW 13.8 mph 18.4 mph N/A   Clear
1:15 PM 95.5 °F 93.7 °F 55.0 °F 26% 29.81 in 10.0 mi SW 11.5 mph 18.4 mph N/A   Clear
1:35 PM 96.1 °F 94.1 °F 54.7 °F 25% 29.81 in 10.0 mi SW 15.0 mph 21.9 mph N/A   Clear
1:55 PM 96.6 °F 94.8 °F 55.6 °F 25% 29.81 in 10.0 mi SW 11.5 mph 20.7 mph N/A   Clear
2:15 PM 96.8 °F 94.7 °F 54.7 °F 24% 29.81 in 10.0 mi WSW 13.8 mph 23.0 mph N/A   Clear
2:35 PM 96.8 °F 94.7 °F 54.3 °F 24% 29.81 in 10.0 mi SW 17.3 mph 21.9 mph N/A   Clear
2:55 PM 97.0 °F 94.6 °F 53.4 °F 23% 29.81 in 10.0 mi SW 18.4 mph 23.0 mph N/A   Clear
3:15 PM 96.8 °F - 52.0 °F 22% 29.80 in 10.0 mi SW 19.6 mph 26.5 mph N/A   Clear
3:35 PM 96.8 °F - 51.6 °F 22% 29.80 in 10.0 mi SW 17.3 mph 26.5 mph N/A   Clear
3:55 PM 97.0 °F 94.6 °F 53.2 °F 23% 29.80 in 10.0 mi WSW 17.3 mph 28.8 mph N/A   Clear
4:15 PM 96.6 °F - 51.6 °F 22% 29.79 in 10.0 mi SW 16.1 mph 25.3 mph N/A   Clear
4:35 PM 96.1 °F 93.5 °F 53.1 °F 23% 29.80 in 10.0 mi SW 17.3 mph 25.3 mph N/A   Clear
4:55 PM 95.7 °F - 50.9 °F 22% 29.79 in 10.0 mi SW 17.3 mph 26.5 mph N/A   Clear
5:15 PM 95.0 °F - 52.3 °F 24% 29.80 in 10.0 mi SW 15.0 mph 25.3 mph N/A   Clear
5:35 PM 94.5 °F 92.1 °F 53.1 °F 25% 29.80 in 10.0 mi SW 13.8 mph 21.9 mph N/A   Clear
5:55 PM 93.7 °F 91.7 °F 55.0 °F 27% 29.80 in 10.0 mi SW 11.5 mph - N/A   Clear
6:15 PM 92.5 °F 90.7 °F 55.8 °F 29% 29.80 in 10.0 mi SW 11.5 mph 19.6 mph N/A   Clear
6:35 PM 91.4 °F 89.6 °F 55.6 °F 30% 29.81 in 10.0 mi SW 10.4 mph 20.7 mph N/A   Clear
6:55 PM 90.0 °F 88.6 °F 56.8 °F 33% 29.81 in 10.0 mi SSW 9.2 mph - N/A   Clear
7:15 PM 87.8 °F 86.7 °F 57.4 °F 36% 29.81 in 10.0 mi SSW 8.1 mph - N/A   Clear
7:35 PM 86.0 °F 85.0 °F 57.7 °F 38% 29.81 in 10.0 mi SSW 8.1 mph - N/A   Clear
7:55 PM 82.6 °F 82.6 °F 59.0 °F 45% 29.82 in 10.0 mi SSW 6.9 mph - N/A   Clear
8:15 PM 79.3 °F - 60.3 °F 52% 29.83 in 10.0 mi SSW 6.9 mph - N/A   Clear
8:35 PM 77.5 °F - 60.8 °F 56% 29.83 in 10.0 mi South 6.9 mph - N/A   Clear
8:55 PM 76.8 °F - 61.7 °F 59% 29.84 in 10.0 mi South 6.9 mph - N/A   Clear
9:15 PM 75.4 °F - 62.1 °F 63% 29.84 in 10.0 mi South 6.9 mph - N/A   Clear
9:35 PM 75.2 °F - 62.1 °F 64% 29.85 in 10.0 mi South 6.9 mph - N/A   Clear
9:55 PM 74.7 °F - 61.7 °F 64% 29.85 in 10.0 mi South 6.9 mph - N/A   Clear
10:15 PM 74.3 °F - 61.3 °F 64% 29.85 in 10.0 mi South 6.9 mph - N/A   Clear
10:35 PM 73.9 °F - 61.0 °F 64% 29.85 in 10.0 mi SSW 6.9 mph - N/A   Clear
10:55 PM 73.9 °F - 60.8 °F 63% 29.86 in 10.0 mi SSW 6.9 mph - N/A   Clear
11:15 PM 73.9 °F - 60.4 °F 63% 29.87 in 10.0 mi SSW 6.9 mph - N/A   Clear
11:35 PM 72.5 °F - 60.4 °F 66% 29.87 in 10.0 mi SSW 6.9 mph - N/A   Clear
11:55 PM 72.3 °F - 60.3 °F 66% 29.87 in 10.0 mi South 6.9 mph - N/A   Clear